Hourly Weather Bolshie Klochki

Today, 15 June, Tuesday

Time Temperature Precipitation Wind Pressure Humidity
00:00 +13°C° 0 mm 0 mps 740 mmHg 90%
01:00 +12°C° 0 mm 0 mps 740 mmHg 92%
02:00 +12°C° 0 mm 0 mps 740 mmHg 92%
03:00 +13°C° 0 mm 0 mps 740 mmHg 90%
04:00 +14°C° 0 mm 0 mps 740 mmHg 87%
05:00 +14°C° 0 mm 0 mps 740 mmHg 84%
06:00 +18°C° 0 mm 1 mps 740 mmHg 76%
07:00 +20°C° 0 mm 1 mps 739 mmHg 67%
08:00 +21°C° 0 mm 2 mps 739 mmHg 59%
09:00 +23°C° 0 mm 2 mps 739 mmHg 56%
10:00 +24°C° 0 mm 3 mps 739 mmHg 52%
11:00 +24°C° 0 mm 3 mps 739 mmHg 48%
12:00 +24°C° 0 mm 3 mps 738 mmHg 50%
13:00 +24°C° 0 mm 3 mps 738 mmHg 52%
14:00 +24°C° 0 mm 3 mps 738 mmHg 54%
15:00 +24°C° 0 mm 3 mps 737 mmHg 52%
16:00 +24°C° 0 mm 3 mps 737 mmHg 50%
17:00 +25°C° 0 mm 3 mps 737 mmHg 48%
18:00 +23°C° 0 mm 2 mps 737 mmHg 57%
19:00 +20°C° 0 mm 2 mps 737 mmHg 66%
20:00 +18°C° 0 mm 2 mps 737 mmHg 75%
21:00 +17°C° 0 mm 2 mps 737 mmHg 82%
22:00 +16°C° 0 mm 2 mps 737 mmHg 88%
23:00 +15°C° 0 mm 2 mps 737 mmHg 94%

Tomorrow, 16 June, Wednesday

Time Temperature Precipitation Wind Pressure Humidity
00:00 +15°C° 0 mm 2 mps 737 mmHg 94%
01:00 +14°C° 0 mm 2 mps 738 mmHg 93%
02:00 +14°C° 0 mm 2 mps 738 mmHg 93%
03:00 +14°C° 0 mm 2 mps 738 mmHg 91%
04:00 +14°C° 0 mm 2 mps 738 mmHg 88%
05:00 +14°C° 0 mm 2 mps 739 mmHg 86%
06:00 +15°C° 0 mm 2 mps 739 mmHg 75%
07:00 +17°C° 0 mm 2 mps 739 mmHg 63%
08:00 +19°C° 0 mm 3 mps 740 mmHg 52%
09:00 +20°C° 0 mm 3 mps 740 mmHg 47%
10:00 +21°C° 0 mm 3 mps 740 mmHg 42%
11:00 +22°C° 0 mm 3 mps 741 mmHg 38%
12:00 +22°C° 0 mm 3 mps 741 mmHg 36%
13:00 +22°C° 0 mm 3 mps 741 mmHg 35%
14:00 +24°C° 0 mm 3 mps 741 mmHg 33%
15:00 +22°C° 0 mm 3 mps 741 mmHg 35%
16:00 +22°C° 0 mm 3 mps 741 mmHg 37%
17:00 +22°C° 0 mm 3 mps 742 mmHg 39%
18:00 +20°C° 0 mm 2 mps 742 mmHg 48%
19:00 +18°C° 0 mm 2 mps 742 mmHg 57%
20:00 +15°C° 0 mm 2 mps 743 mmHg 66%
21:00 +14°C° 0 mm 2 mps 743 mmHg 67%
22:00 +13°C° 0 mm 1 mps 743 mmHg 68%
23:00 +12°C° 0 mm 1 mps 744 mmHg 69%

Day after tomorrow, 17 June, Thursday

Time Temperature Precipitation Wind Pressure Humidity
00:00 +12°C° 0 mm 1 mps 744 mmHg 70%
01:00 +11°C° 0 mm 1 mps 744 mmHg 71%
02:00 +10°C° 0 mm 0 mps 745 mmHg 72%
03:00 +11°C° 0 mm 0 mps 745 mmHg 71%
04:00 +12°C° 0 mm 0 mps 745 mmHg 70%
05:00 +13°C° 0 mm 0 mps 746 mmHg 69%
06:00 +15°C° 0 mm 0 mps 746 mmHg 62%
07:00 +17°C° 0 mm 0 mps 746 mmHg 54%
08:00 +19°C° 0 mm 0 mps 746 mmHg 47%
09:00 +21°C° 0 mm 0 mps 747 mmHg 43%
10:00 +24°C° 0 mm 1 mps 747 mmHg 39%
11:00 +25°C° 0 mm 1 mps 747 mmHg 36%
12:00 +26°C° 0 mm 1 mps 747 mmHg 35%
13:00 +26°C° 0 mm 1 mps 747 mmHg 34%
14:00 +26°C° 0 mm 1 mps 747 mmHg 33%
15:00 +26°C° 0 mm 1 mps 747 mmHg 35%
16:00 +26°C° 0 mm 1 mps 747 mmHg 38%
17:00 +26°C° 0 mm 1 mps 747 mmHg 40%
18:00 +24°C° 0 mm 1 mps 747 mmHg 49%
19:00 +22°C° 0 mm 1 mps 747 mmHg 59%
20:00 +20°C° 0 mm 1 mps 747 mmHg 69%
21:00 +19°C° 0 mm 1 mps 747 mmHg 72%
22:00 +16°C° 0 mm 0 mps 747 mmHg 74%
23:00 +15°C° 0 mm 0 mps 747 mmHg 77%

18 June, Friday

Time Temperature Precipitation Wind Pressure Humidity
00:00 +14°C° 0 mm 0 mps 747 mmHg 79%
01:00 +15°C° 0 mm 1 mps 748 mmHg 80%
02:00 +14°C° 0 mm 1 mps 748 mmHg 82%
03:00 +15°C° 0 mm 1 mps 748 mmHg 80%
04:00 +16°C° 0 mm 1 mps 748 mmHg 79%
05:00 +16°C° 0 mm 1 mps 748 mmHg 77%
06:00 +20°C° 0 mm 1 mps 748 mmHg 69%
07:00 +22°C° 0 mm 1 mps 748 mmHg 61%
08:00 +24°C° 0 mm 1 mps 748 mmHg 52%
09:00 +25°C° 0 mm 2 mps 748 mmHg 48%
10:00 +26°C° 0 mm 2 mps 748 mmHg 43%
11:00 +27°C° 0 mm 2 mps 748 mmHg 39%
12:00 +28°C° 0 mm 2 mps 748 mmHg 38%
13:00 +28°C° 0 mm 3 mps 748 mmHg 37%
14:00 +29°C° 0 mm 3 mps 748 mmHg 37%
15:00 +29°C° 0 mm 3 mps 747 mmHg 40%
16:00 +28°C° 0 mm 3 mps 747 mmHg 42%
17:00 +28°C° 0 mm 2 mps 747 mmHg 45%
18:00 +26°C° 0 mm 2 mps 747 mmHg 55%
19:00 +24°C° 0 mm 2 mps 747 mmHg 65%
20:00 +20°C° 0 mm 2 mps 747 mmHg 75%
21:00 +19°C° 0 mm 2 mps 747 mmHg 79%
22:00 +18°C° 0 mm 2 mps 747 mmHg 82%
23:00 +17°C° 0 mm 2 mps 747 mmHg 85%

19 June, Saturday

Time Temperature Precipitation Wind Pressure Humidity
00:00 +16°C° 0 mm 2 mps 747 mmHg 87%
01:00 +16°C° 0 mm 2 mps 747 mmHg 90%
02:00 +15°C° 0 mm 2 mps 748 mmHg 92%
03:00 +16°C° 0 mm 2 mps 748 mmHg 90%
04:00 +16°C° 0 mm 2 mps 748 mmHg 87%
05:00 +17°C° 0 mm 2 mps 748 mmHg 85%
06:00 +19°C° 0 mm 2 mps 748 mmHg 76%
07:00 +21°C° 0 mm 2 mps 748 mmHg 67%
08:00 +24°C° 0 mm 3 mps 748 mmHg 57%
09:00 +25°C° 0 mm 3 mps 748 mmHg 52%
10:00 +27°C° 0 mm 3 mps 748 mmHg 47%
11:00 +28°C° 0 mm 3 mps 748 mmHg 41%
12:00 +28°C° 0 mm 3 mps 747 mmHg 40%
13:00 +29°C° 0 mm 3 mps 747 mmHg 38%
14:00 +30°C° 0 mm 3 mps 747 mmHg 36%
15:00 +29°C° 0 mm 2 mps 747 mmHg 39%
16:00 +29°C° 0 mm 2 mps 746 mmHg 41%
17:00 +29°C° 0 mm 2 mps 746 mmHg 43%
18:00 +27°C° 0 mm 2 mps 746 mmHg 53%
19:00 +25°C° 0 mm 1 mps 746 mmHg 62%
20:00 +22°C° 0 mm 1 mps 746 mmHg 71%
21:00 +21°C° 0 mm 1 mps 746 mmHg 75%
22:00 +20°C° 0 mm 1 mps 746 mmHg 79%
23:00 +18°C° 0 mm 2 mps 747 mmHg 83%

20 June, Sunday

Time Temperature Precipitation Wind Pressure Humidity
00:00 +19°C° 0 mm 1 mps 747 mmHg 86%
01:00 +18°C° 0 mm 1 mps 747 mmHg 89%
02:00 +18°C° 0 mm 1 mps 747 mmHg 92%
03:00 +18°C° 0 mm 1 mps 747 mmHg 90%
04:00 +19°C° 0 mm 1 mps 747 mmHg 88%
05:00 +20°C° 0 mm 1 mps 747 mmHg 85%
06:00 +22°C° 0 mm 1 mps 747 mmHg 77%
07:00 +23°C° 0 mm 2 mps 747 mmHg 68%
08:00 +25°C° 0 mm 2 mps 747 mmHg 60%
09:00 +26°C° 0 mm 2 mps 747 mmHg 54%
10:00 +28°C° 0 mm 2 mps 746 mmHg 48%
11:00 +29°C° 0 mm 3 mps 746 mmHg 43%
12:00 +29°C° 0 mm 3 mps 746 mmHg 41%
13:00 +30°C° 0 mm 3 mps 746 mmHg 39%
14:00 +30°C° 0 mm 3 mps 745 mmHg 37%
15:00 +30°C° 0 mm 2 mps 745 mmHg 39%
16:00 +30°C° 0 mm 2 mps 745 mmHg 41%
17:00 +30°C° 0 mm 2 mps 745 mmHg 43%
18:00 +27°C° 0 mm 2 mps 745 mmHg 53%
19:00 +25°C° 0 mm 2 mps 745 mmHg 64%
20:00 +23°C° 0 mm 2 mps 744 mmHg 74%
21:00 +21°C° 0 mm 2 mps 745 mmHg 77%
22:00 +20°C° 0 mm 2 mps 745 mmHg 80%
23:00 +18°C° 0 mm 2 mps 745 mmHg 83%
Show more